{"data":{"norad_id":47778,"intl_designator":"2021-017BJ","name":"STARLINK-2211","alt_names":[],"object_type":"PAYLOAD","status":"ACTIVE","operator":null,"country":"US","launch_date":"2021-03-04","launch_site_code":"AFETR","launch_vehicle":null,"mission":null,"orbit_class":"UNKNOWN","rcs_meters":null,"size_class":null,"mass_kg":null,"dimensions":null,"purposes":["comms"],"wikipedia_slug":null,"has_3d_model":false,"image_url":null,"decayed_at":null,"tle_current":{"epoch":"2026-09-19T13:13:11.732736Z","epoch_age_seconds":107790,"freshness":"FRESH","line1":"1 47778U 21017BJ  26262.55083024  .00084089  00000+0  59466-3 0  9990","line2":"2 47778  53.1565 352.5005 0005801 356.4071   3.6905 15.73294540307979","mean_motion":15.7329454,"eccentricity":0.0005801,"inclination_deg":53.1565,"raan_deg":352.5005,"arg_perigee_deg":356.4071,"mean_anomaly_deg":3.6905,"bstar":0.00059466,"rev_number":30797,"period_min":91.527680506665,"perigee_km":345.5859537565,"apogee_km":353.39134503493,"semimajor_km":6727.6256493957,"source":"CELESTRAK","updated_at":"2026-09-20T09:00:38.603686Z"}}}